Location: Asheville, NC
(35.6000°N, 82.5500°W)
Time: 09:41:57

Hubble Space Telescope - Pass Details

Date: 11 March 2018
Orbit: 537 x 541 km, 28.5° (Epoch: 20 March)

Event Time Altitude Azimuth Distance (km) Brightness Sun altitude
Rises 20:28:08 0° 228° (SW) 2,669 5.0 -11.7°
Reaches altitude 10° 20:30:54 10° 210° (SSW) 1,780 3.8 -12.3°
Maximum altitude 20:33:49 19° 164° (SSE) 1,314 2.5 -12.9°
Enters shadow 20:35:34 15° 133° (SE) 1,498 2.6 -13.2°
